Central Victoria, Mexico

11:26 AM EST on December 07, 2016 (GMT -0500)
Cozumel

Weather History for MMCZ - September, 2012

Change the Weather History Date:

Thursday, September 13, 2012

  Actual Average Record
Temperature  
Mean Temperature 80 °F -  
Max Temperature 87 °F 89 °F 93 °F (1997)
Min Temperature 73 °F 76 °F 68 °F (2013)
Cooling Degree Days 15    
Growing Degree Days 30 (Base 50)    
Moisture  
Dew Point 70 °F    
Average Humidity 73    
Maximum Humidity 83    
Minimum Humidity 55    
Precipitation  
Precipitation 1.55 in - - ()
Sea Level Pressure  
Sea Level Pressure 29.94 in    
Wind  
Wind Speed 3 mph ()    
Max Wind Speed 14 mph    
Max Gust Speed -    
Visibility 7.5 miles    
Events      
Averages and records for this station are not official NWS values.
T = Trace of Precipitation, MM = Missing Value Source: Averaged Metar Reports

Daily Weather History Graph

Daily Weather History Graph

Search for Another Location

Airport or City:

Trip Planner

Search our weather history database for the weather conditions in past years. The results will help you decide how hot, cold, wet, or windy it might be!

Date:

Astronomy

Sep. 13, 2012 Rise Set
Actual Time 6:34 AM CDT 6:51 PM CDT
Civil Twilight 6:12 AM CDT 7:14 PM CDT
Nautical Twilight 5:46 AM CDT 7:39 PM CDT
Astronomical Twilight 5:20 AM CDT 8:05 PM CDT
Moon 4:08 AM CDT (9/13) 5:04 PM CDT (9/13)
Length of Visible Light 13h 01m
Length of Day
12h 17m
Waning Crescent, 7% of the Moon is Illuminated
Sep 13
Waning Crescent
Sep 15
New
Sep 22
First Quarter
Sep 29
Full
Oct 8
Last Quarter

Hourly Weather History & Observations

Time (CDT) Temp. Heat Index Dew Point Humidity Pressure Visibility Wind Dir Wind Speed Gust Speed Precip Events Conditions
12:40 AM 77.0 °F - 69.8 °F 78% 29.92 in 7.0 mi Calm Calm - N/A   Scattered Clouds
1:40 AM 77.0 °F - 69.8 °F 78% 29.95 in 7.0 mi Calm Calm - N/A   Partly Cloudy
2:40 AM 77.0 °F - 69.8 °F 78% 29.94 in 7.0 mi Calm Calm - N/A   Partly Cloudy
3:41 AM 77.0 °F - 71.6 °F 83% 29.97 in 7.0 mi North 6.9 mph - N/A   Partly Cloudy
4:45 AM 77.0 °F - 69.8 °F 78% 29.92 in 7.0 mi NNW 4.6 mph - N/A   Scattered Clouds
5:41 AM 75.2 °F - 69.8 °F 83% 29.93 in 7.0 mi Calm Calm - N/A   Mostly Cloudy
6:40 AM 75.2 °F - 69.8 °F 83% 29.89 in 7.0 mi Calm Calm - N/A   Scattered Clouds
7:40 AM 77.0 °F - 71.6 °F 83% 29.95 in 8.0 mi Calm Calm - N/A   Partly Cloudy
8:41 AM 78.8 °F - 71.6 °F 78% 29.96 in 8.0 mi ENE 4.6 mph - N/A   Scattered Clouds
9:40 AM 84.2 °F 88.4 °F 69.8 °F 62% 29.99 in 8.0 mi East 3.5 mph - N/A   Scattered Clouds
10:43 AM 84.2 °F 89.6 °F 71.6 °F 66% 29.97 in 8.0 mi Calm Calm - N/A   Scattered Clouds
11:40 AM 86.0 °F 90.4 °F 69.8 °F 58% 29.97 in 8.0 mi ENE 9.2 mph - N/A   Scattered Clouds
12:41 PM 87.8 °F 93.8 °F 71.6 °F 58% 29.94 in 8.0 mi NE 10.4 mph - N/A   Scattered Clouds
1:40 PM 86.0 °F 89.4 °F 68.0 °F 55% 29.94 in 8.0 mi ENE 11.5 mph - N/A   Scattered Clouds
2:41 PM 86.0 °F 89.4 °F 68.0 °F 55% 29.92 in 8.0 mi ENE 11.5 mph - N/A   Scattered Clouds
3:40 PM 84.2 °F 88.4 °F 69.8 °F 62% 29.92 in 8.0 mi NE 11.5 mph - N/A   Scattered Clouds
4:41 PM 84.2 °F 89.6 °F 71.6 °F 66% 29.91 in 8.0 mi NNE 13.8 mph - N/A   Scattered Clouds
5:44 PM 82.4 °F 86.3 °F 69.8 °F 66% 29.91 in 8.0 mi NNE 5.8 mph - N/A   Scattered Clouds
6:48 PM 78.8 °F - 69.8 °F 74% 29.88 in 8.0 mi ENE 3.5 mph - N/A   Scattered Clouds
7:50 PM 77.0 °F - 69.8 °F 78% 29.93 in 8.0 mi Calm Calm - N/A   Scattered Clouds
8:41 PM 77.0 °F - 69.8 °F 78% 29.96 in 7.0 mi East 3.5 mph - N/A   Scattered Clouds
9:44 PM 77.0 °F - 69.8 °F 78% 30.01 in 7.0 mi East 9.2 mph - N/A   Scattered Clouds
10:45 PM 73.4 °F - 68.0 °F 83% 29.98 in 7.0 mi Calm Calm - N/A   Partly Cloudy
11:46 PM 73.4 °F - 68.0 °F 83% 29.96 in 7.0 mi Calm Calm - N/A   Partly Cloudy